This demonstration page uses our WeatherBlox Daily Observations layout. Learn more.

Left ArrowRight Arrow

Hourly Observations for October 1, 2015

Temp ( °F °C ) Dew Point ( °F °C ) Humidity (%) Winds ( mph kmh ) Pressure ( in mb ) Visibility ( mi km ) Precip ( " mm )
12:51 am 00:51 Clear 72 22.2 51 10.6 48 48 SE 7 11 29.83 1010 10 16 0.00 0.00
1:51 am 01:51 Clear 69 20.6 52 11.1 55 55 NNE 5 7 29.83 1010 10 16 0.00 0.00
2:51 am 02:51 Clear 67 19.4 52 11.1 59 59 Calm 29.84 1010 10 16 0.00 0.00
3:51 am 03:51 Clear 65 18.3 52 11.1 63 63 NNW 5 7 29.85 1011 10 16 0.00 0.00
4:51 am 04:51 Clear 65 18.3 50 10 59 59 Calm 29.86 1011 10 16 0.00 0.00
6:51 am 06:51 Sunny 65 18.3 51 10.6 61 61 SSE 5 7 29.92 1013 10 16 0.00 0.00
7:51 am 07:51 Sunny 73 22.8 49 9.4 43 43 SSE 9 15 29.92 1013 10 16 0.00 0.00
8:51 am 08:51 Sunny 81 27.2 48 8.9 32 32 SE 13 20 29.92 1013 10 16 0.00 0.00
9:51 am 09:51 Sunny 85 29.4 49 9.4 29 29 SSE 12 19 29.91 1013 10 16 0.00 0.00
10:51 am 10:51 Sunny 88 31.1 47 8.3 24 24 SSE 8 13 29.90 1013 10 16 0.00 0.00
11:51 am 11:51 Sunny 91 32.8 47 8.3 22 22 S 6 9 29.88 1012 10 16 0.00 0.00
12:51 pm 12:51 Sunny 93 33.9 46 7.8 20 20 SSW 5 7 29.85 1011 10 16 0.00 0.00
1:51 pm 13:51 Sunny 95 35 44 6.7 17 17 VRB 5 7 29.82 1010 10 16 0.00 0.00
2:51 pm 14:51 Sunny 96 35.6 44 6.7 17 17 SW 6 9 29.80 1009 10 16 0.00 0.00
3:51 pm 15:51 Sunny 96 35.6 43 6.1 16 16 Calm 29.79 1009 10 16 0.00 0.00
4:51 pm 16:51 Sunny 96 35.6 46 7.8 18 18 WNW 8 13 29.78 1008 10 16 0.00 0.00
5:51 pm 17:51 Sunny 91 32.8 47 8.3 22 22 WNW 8 13 29.79 1009 10 16 0.00 0.00
6:51 pm 18:51 Clear 83 28.3 49 9.4 31 31 NNW 7 11 29.80 1009 10 16 0.00 0.00
7:51 pm 19:51 Clear 80 26.7 50 10 35 35 WNW 8 13 29.81 1009 10 16 0.00 0.00
8:51 pm 20:51 Clear 77 25 50 10 39 39 NNW 7 11 29.80 1009 10 16 0.00 0.00
9:51 pm 21:51 Clear 77 25 48 8.9 36 36 N 6 9 29.80 1009 10 16 0.00 0.00
10:51 pm 22:51 Clear 73 22.8 47 8.3 40 40 NNW 8 13 29.80 1009 10 16 0.00 0.00
11:51 pm 23:51 Clear 76 24.4 43 6.1 31 31 NNW 8 13 29.79 1009 10 16 0.00 0.00

Powered by AerisWeather